Starlink 11616

operational
NORAD ID: 63137 Int'l Des: 2025-043 Owner: SPXS Country: US Constellation: starlink
LEOCIRCULAR

About Starlink 11616

Description loading...

Live Position

Loading 3D Globe...

Upcoming Passes

Altitude History

Altitude vs Time

uPlot chart will show altitude changes over time

Two-Line Element Set

1 63137U 25043F 25257.36000385 .00173968 00000-0 13313-2 0 9997
2 63137 42.9993 233.2513 0001484 273.2577 86.8121 15.70835414 31746
Epoch: Sep 14, 2025 • Age: 40 hours

Current Status

Altitude 354.7 km
Velocity 7.70 km/s
Sub-Earth Point -2.64°S, 139.13°W
Launch Date Mar 3, 2025
Age 0.5 years
Type internet

Technical Details

Classification Payload
Mass 960.00 kg
Dry Mass 910.00 kg
Total Mass 960.00 kg
Length 0.30 m
Diameter 4.10 m
Span 29.00 m
Shape Box + pan
Manufacturer SPXS
Bus Type Starlink V2MD
Phase Status In Orbit
Owner/State SPXS/US

Large Constellations

Loading constellations...